星链-32178 (STARLINK-32178)

导读 | 豆包AI

STARLINK-32178是美国SpaceX公司星链(Starlink)卫星互联网项目的成员,于2024年8月10日由猎鹰9号火箭从佛罗里达卡角发射升空,属于Starlink Group 8-3任务的21颗第二代星链卫星之一。 星链项目旨在通过近地轨道卫星星座,为全球尤其是偏远地区提供低 latency、高速的宽带互联网接入服务,该卫星入轨后将助力SpaceX扩展星链网络覆盖,推进直连手机等服务的商业化部署。

基本信息
目录编号:
60413
目录名称:
STARLINK-32178
国际标识:
2024-141R
轨道中心:
EARTH
卫星名称:
星链-32178 (STARLINK-32178)
卫星全名:
星链-32178 (STARLINK-32178)
卫星状态:
在轨 (已飞行629 天)
发射日期:
2024-08-10 UTC
国别 :
美国 (US)
星等 :
--
轨道信息
数据来源 国际轨道数据
星历时间: 2026-04-30T22:00:02+0800
13小时前
查看轨道信息
半长轴: 6840.956km
偏心率: 0.0000951
轨道倾角: 53.159°
近地点辐角 99.930°
升交点赤经 1.468°
平近点角 16.262°
近地点: 462.168km
远地点: 463.47km
周期: 93.850分钟
每日圈数: 15.343612
详细信息
卫星平台:
Starlink v2.0 mini
运营商:
太空探索技术公司
运营商所在国:
美国
制造商(研发单位):
太空探索技术公司
制造商所在国:
美国
使用方式:
暂无
卫星简介
星链(Starlink)计划是由太空探索技术公司(SpaceX)提出的一个巨型低轨卫星互联网星座项目,计划在2019年至2024年间在太空搭建由约1.2万颗卫星组成的“星链”网络,其中1584颗将部署在地球上空550千米处的近地轨道,并从2020年开始工作。该卫星仍在工作。
2D轨道图
3D轨道图
轨道高度分析图
轨道倾角分析图
轨道综合分析图
查看轨道综合分析图